Location: Croisilles
(50.1998°N, 2.8793°E)
Time: 13:26:34
(UTC+00:00)

GENESIS II - Pass Details

Date: 21 January 2021
Orbit: 496 x 530 km, 64.5° (Epoch: 26 February)

Event Time Altitude Azimuth Distance (km) Brightness Sun altitude
Rises 17:13:05 0° 219° (SW) 2,660 9.0 -7.9°
Reaches altitude 10° 17:15:15 10° 219° (SW) 1,775 8.0 -8.2°
Maximum altitude 17:19:15 88° 129° (SE) 537 4.2 -8.8°
Drops below altitude 10° 17:23:15 10° 41° (NE) 1,782 6.4 -9.4°
Enters shadow 17:23:21 10° 41° (NE) 1,818 6.4 -9.4°
